Regional Weather Roundup
Issued by NWS

Home | Current Version | Previous Version | Text Only | Print | Product List | Glossary Off
Versions: 1 2 3 4 5 6 7 8 9 10 11 12 13 14 15 16 17 18 19 20 21 22 23 24 25 26 27 28 29 30 31 32 33 34 35 36 37 38 39 40 41 42 43 44 45 46 47 48 49 50

000
ASUS43 KMPX 310110
RWRMN
WEATHER ROUNDUP FOR MINNESOTA
NATIONAL WEATHER SERVICE TWIN CITIES/CHANHASSEN MN
800 PM CDT SUN AUG 30 2015


NOTE: "FAIR" INDICATES FEW OR NO CLOUDS BELOW 12,000 FEET WITH NO
SIGNIFICANT WEATHER AND/OR OBSTRUCTIONS TO VISIBILITY. N/A MEANS
CURRENT SKY AND/OR WEATHER CONDITIONS ARE NOT AVAILABLE.

MNZ060>063-068>070-310200-
   Twin Cities Metro

CITY           SKY/WX    TMP DP  RH WIND       PRES   REMARKS
TWIN CITIES    PTCLDY    76  66  71 S9        29.92R
ST PAUL        CLEAR     72  66  81 S8        29.92S
CRYSTAL        CLEAR     76  66  71 S10       29.90R
LAKEVILLE      CLEAR     70  66  88 S5        29.93S
EDEN PRAIRIE   CLEAR     74  66  76 S12       29.91S
SOUTH ST PAUL  CLEAR     74  65  74 S6        29.92S
LAKE ELMO      FAIR      72  66  83 S8        29.93S
$$
MNZ001>005-007-008-013>017-022>024-027-028-310200-
   Northwest Minnesota

CITY           SKY/WX    TMP DP  RH WIND       PRES   REMARKS
BEMIDJI        PTCLDY    74  67  78 S8        29.79S
HALLOCK        MOCLDY    81  70  69 S15       29.63F
ROSEAU         MOCLDY    79  72  78 S8        29.70S
WARROAD        MOCLDY    79  73  83 S8        29.71S
THIEF RVR FALL MOCLDY   N/A N/A N/A S10       29.71S
CROOKSTON      MOCLDY    81  66  61 S17G25    29.70S
FOSSTON        PTCLDY    73  64  73 S8        29.76S
DETROIT LAKES  PTCLDY    75  68  78 S13       29.81S
MOORHEAD       MOCLDY    79  70  73 SE14      29.73F
PARK RAPIDS    CLEAR     76  67  73 S10       29.82S
MAHNOMEN       FAIR      74  67  78 S5        29.76S
$$
MNZ006-009>011-018-025>026-310200-
   North Central Minnesota

CITY           SKY/WX    TMP DP  RH WIND       PRES   REMARKS
BAUDETTE       PTCLDY    75  68  78 SE6       29.74S
FLAG ISLAND    MOCLDY    73  68  83 SE13      29.71S
INTL FALLS     PTCLDY    72  68  87 SE5       29.78S
WASKISH        PTCLDY    73  70  88 CALM      29.76F
BIG FORK       PTCLDY    72  66  83 S5        29.82S
LONGVILLE      PTCLDY    72  66  83 S5        29.84S
GRAND RAPIDS     N/A     72  64  78 S9        29.85S
CRANE LAKE     PTCLDY    70  70 100 S1        29.82S
ORR            MOCLDY    75  64  69 S2        29.80S
COOK           MOCLDY    73  68  83 S3        29.84S
WALKER         FAIR      74  67  79 S5        29.81F
$$
MNZ012-019>021-037-310200-
   Northeast Minnesota

CITY           SKY/WX    TMP DP  RH WIND       PRES   REMARKS
DULUTH         PTCLDY    73  64  73 SW9       29.89R
ELY            PTCLDY    73  66  78 S5        29.85S
HIBBING        PTCLDY    75  66  73 S6        29.85S
EVELETH        PTCLDY    72  66  83 S5        29.88R
DULUTH HARBOR  PTCLDY    75  66  73 SW7       29.86R
TWO HARBORS    PTCLDY    75  68  78 SW5       29.86R
SILVER BAY     PTCLDY    73  66  78 SW3       29.85S
GRAND MARAIS     N/A     57  55  93 CALM      29.84R
G MARAIS ARPRT PTCLDY    66  63  88 S3        29.90R
$$
MNZ029>031-032-039>041-046>048-054>057-064-310200-
   West Central Minnesota

CITY           SKY/WX    TMP DP  RH WIND       PRES   REMARKS
FERGUS FALLS   PTCLDY    75  68  78 S14       29.78S
WHEATON        PTCLDY    73  66  78 SE14      29.79S
MORRIS         PTCLDY    73  70  88 SE10      29.82S
ALEXANDRIA     PTCLDY    75  66  73 S14       29.86S
ELBOW LAKE     FAIR      73  68  83 SE15      29.81S
WADENA         PTCLDY    73  66  78 S9        29.83S
GLENWOOD       PTCLDY    73  66  78 S12       29.87S
APPLETON       PTCLDY    75  64  69 S7        29.82S
BENSON         PTCLDY    73  66  78 S8        29.84S
ORTONVILLE     PTCLDY    75  66  73 SE8       29.81S
MADISON        PTCLDY    72  64  78 SE7       29.83S
WILLMAR        FAIR      73  64  73 S7        29.89S
$$
MNZ033>034-036-042>043-049>051-058-059-310200-
   Central Minnesota

CITY           SKY/WX    TMP DP  RH WIND       PRES   REMARKS
ST CLOUD       CLEAR     72  66  81 S9        29.88S
SAUK CENTRE    FAIR      72  67  86 SE5       29.87S
PAYNESVILLE    CLEAR     74  67  77 SE8       29.89R
AITKIN         CLEAR     72  64  78 S6        29.86S
PINE RIVER     CLEAR     72  66  83 S6        29.88S
BRAINERD       CLEAR     71  66  84 S7        29.86S
STAPLES        CLEAR     73  66  78 S8        29.84F
LONG PRAIRIE   FAIR      70  66  88 SE8       29.87S
LITTLE FALLS   CLEAR     72  63  73 SE6       29.87S
LITCHFIELD     CLEAR     73  70  88 S3        29.90S
BUFFALO        CLEAR     73  65  78 S5        29.91S
MAPLE LAKE     CLEAR     72  68  86 S5        29.90S
$$
MNZ037-044-045-052-053-310200-
   East Central Minnesota

CITY           SKY/WX    TMP DP  RH WIND       PRES   REMARKS
PRINCETON      CLEAR     73  66  78 S6        29.89F
MORA           CLEAR     70  63  78 S5        29.90S
CAMBRIDGE      CLEAR     73  63  68 S6        29.88S
RUSH CITY      CLEAR     71  65  82 S6        29.90S
MOOSE LAKE     PTCLDY    72  64  78 S3        29.86S
HINCKLEY       FAIR      72  68  88 S3        29.89S
CLOQUET        PTCLDY    72  64  78 S6        29.88S
MCGREGOR       PTCLDY    72  64  78 S5        29.87S
$$
MNZ071>073-080-081-089-090-097-098-310200-
   Southwest Minnesota

CITY           SKY/WX    TMP DP  RH WIND       PRES   REMARKS
MONTEVIDEO     PTCLDY    73  64  73 SW9G16    29.86F
GRANITE FALLS  PTCLDY    72  66  82 SE9       29.88S
CANBY          PTCLDY    72  62  68 S5        29.85S
MARSHALL       PTCLDY    72  61  68 S12       29.88S
REDWOOD FALLS  PTCLDY    72  67  84 S9        29.88S
OLIVIA         PTCLDY    72  64  78 S8        29.88S
PIPESTONE      PTCLDY    66  63  88 S9        29.91S
WINDOM         PTCLDY    72  64  78 S7        29.93R
WORTHINGTON    PTCLDY    68  63  83 S8        29.93S
JACKSON        PTCLDY    70  68  94 S10       29.95S
TRACY          MOCLDY    72  66  82 S12       29.88F
SLAYTON        PTCLDY    68  65  91 CALM      29.92F
$$
MNZ065>067-074>077-082>085-091>093-310200-
   South Central Minnesota

CITY           SKY/WX    TMP DP  RH WIND       PRES   REMARKS
MANKATO        CLEAR     72  64  78 S8        29.93S
NEW ULM        CLEAR     72  66  83 S9        29.91S
ST JAMES       CLEAR     72  68  88 SE9       29.93S
FAIRMONT       CLEAR     68  61  77 S9        29.94S
GLENCOE        CLEAR     73  69  88 SE6       29.90S
FARIBAULT      CLEAR     70  66  88 S7        29.95S
OWATONNA       CLEAR     70  64  83 S6        29.96S
WASECA         CLEAR     68  63  83 S6        29.96S
ALBERT LEA     CLEAR     70  66  88 S7        29.97S
$$
MNZ078>079-086>088-094>096-310200-
   Southeast Minnesota

CITY           SKY/WX    TMP DP  RH WIND       PRES   REMARKS
ROCHESTER      CLEAR     66  63  90 S8        29.99S
RED WING       CLEAR     73  64  73 SW5       29.94S
STANTON        CLEAR     71  65  80 S7        29.93S
DODGE CENTER   CLEAR     64  63  94 S6        29.98S
WINONA         CLEAR     70  63  78 SE3       29.97S
PRESTON        MOCLDY    66  62  86 S8        30.00S
$$
ABBREVIATIONS USED IN REMARKS
   TC - TEMPERATURES IN CELSIUS
  WCI - WIND CHILL INDEX
   HX - HEAT INDEX
  VSB - VISIBILITY
$$



USA.gov is the U.S. government's official web portal to all federal, state and local government web resources and services.